Weather History for KSLI - November, 2012

Change the Weather History Date:

Friday, November 23, 2012

  Actual Average Record
Temperature  
Mean Temperature 59 °F -  
Max Temperature 68 °F 69 °F 80 °F (2014)
Min Temperature 50 °F 52 °F 41 °F (2011)
Degree Days  
Heating Degree Days 6    
Growing Degree Days 9 (Base 50)    
Moisture  
Dew Point 55 °F    
Average Humidity 99    
Maximum Humidity 100    
Minimum Humidity 82    
Precipitation  
Precipitation 0.00 in - - ()
Sea Level Pressure  
Sea Level Pressure 30.12 in    
Wind  
Wind Speed 2 mph (West)    
Max Wind Speed 9 mph    
Max Gust Speed -    
Visibility 2 miles    
Events Fog    
Averages and records for this station are not official NWS values.
T = Trace of Precipitation, MM = Missing Value Source: NWS Daily Summary

Daily Weather History Graph

Daily Weather History Graph

Search for Another Location

Airport or City:

Trip Planner

Search our weather history database for the weather conditions in past years. The results will help you decide how hot, cold, wet, or windy it might be!

Date:

Astronomy

Nov. 23, 2012 Rise Set
Actual Time 6:32 AM PST 4:45 PM PST
Civil Twilight 6:05 AM PST 5:11 PM PST
Nautical Twilight 5:34 AM PST 5:42 PM PST
Astronomical Twilight 5:04 AM PST 6:12 PM PST
Moon 1:52 PM PST (11/23) 2:06 AM PST (11/23)
Length of Visible Light 11h 06m
Length of Day
10h 12m
Waxing Gibbous, 80% of the Moon is Illuminated
Nov 23
Waxing Gibbous
Nov 28
Full
Dec 6
Last Quarter
Dec 13
New
Dec 19
First Quarter

Hourly Weather History & Observations

Time (PST) Temp. Dew Point Humidity Pressure Visibility Wind Dir Wind Speed Gust Speed Precip Events Conditions
12:58 AM 55.8 °F 55.8 °F 100% 30.13 in 0.2 mi Calm Calm - N/A Fog Fog
1:58 AM 55.4 °F 55.4 °F 100% 30.13 in 0.2 mi Calm Calm - N/A Fog Fog
2:58 AM 54.9 °F 54.9 °F 100% 30.12 in 0.2 mi Calm Calm - N/A Fog Fog
3:58 AM 54.5 °F 54.5 °F 100% 30.12 in 0.2 mi Calm Calm - N/A Fog Fog
4:58 AM 54.5 °F 54.5 °F 100% 30.13 in 0.2 mi Calm Calm - N/A Fog Fog
5:58 AM 54.1 °F 54.1 °F 100% 30.14 in 0.2 mi Calm Calm - N/A Fog Fog
6:58 AM 54.7 °F 54.7 °F 100% 30.15 in 0.1 mi Calm Calm - N/A Fog Fog
7:58 AM 54.3 °F 54.3 °F 100% 30.17 in 0.2 mi Variable 1.2 mph - N/A Fog Fog
8:58 AM 54.7 °F 54.7 °F 100% 30.17 in 0.2 mi North 2.3 mph - N/A Fog Fog
9:18 AM 55.4 °F 55.4 °F 100% 30.16 in 0.5 mi NW 3.5 mph - N/A Fog Fog
9:23 AM 55.4 °F 55.4 °F 100% 30.16 in 0.8 mi WNW 3.5 mph - N/A   Mist
9:33 AM 55.4 °F 55.4 °F 100% 30.17 in 1.2 mi North 2.3 mph - N/A   Mist
9:38 AM 55.4 °F 55.4 °F 100% 30.17 in 1.5 mi North 1.2 mph - N/A   Overcast
9:48 AM 55.4 °F 55.4 °F 100% 30.17 in 1.8 mi WNW 5.8 mph - N/A   Overcast
9:53 AM 55.4 °F 55.4 °F 100% 30.17 in 2.0 mi Variable 2.3 mph - N/A   Overcast
9:58 AM 55.4 °F 55.4 °F 100% 30.17 in 2.0 mi Variable 3.5 mph - N/A   Overcast
10:18 AM 55.4 °F 55.4 °F 100% 30.16 in 3.0 mi Variable 2.3 mph - N/A   Overcast
10:33 AM 57.2 °F 57.2 °F 100% 30.15 in 3.0 mi Variable 3.5 mph - N/A   Scattered Clouds
10:58 AM 60.3 °F 59.2 °F 96% 30.15 in 4.0 mi WNW 4.6 mph - N/A   Partly Cloudy
11:58 AM 68.7 °F 63.1 °F 82% 30.12 in 4.0 mi South 5.8 mph - N/A   Haze
12:58 PM 67.1 °F 64.6 °F 92% 30.10 in 4.0 mi South 8.1 mph - N/A   Clear
1:58 PM 63.5 °F 63.3 °F 99% 30.09 in 4.0 mi SSW 9.2 mph - N/A   Clear
2:58 PM 64.8 °F 64.6 °F 99% 30.08 in 4.0 mi South 5.8 mph - N/A   Clear
3:58 PM 65.5 °F 64.2 °F 96% 30.07 in 6.0 mi South 3.5 mph - N/A   Clear
4:58 PM 63.0 °F 63.0 °F 100% 30.07 in 6.0 mi SE 2.3 mph - N/A   Clear
5:58 PM 59.5 °F 59.5 °F 100% 30.08 in 6.0 mi South 1.2 mph - N/A   Clear
6:58 PM 56.8 °F 56.8 °F 100% 30.09 in 6.0 mi WSW 2.3 mph - N/A   Clear
7:58 PM 54.9 °F 54.9 °F 100% 30.10 in 8.0 mi Calm Calm - N/A   Clear
8:58 PM 53.4 °F 53.4 °F 100% 30.11 in 6.0 mi Calm Calm - N/A   Clear
9:08 PM 51.8 °F 51.8 °F 100% 30.11 in 1.8 mi Calm Calm - N/A   Clear
9:13 PM 51.8 °F 51.8 °F 100% 30.11 in 1.0 mi West 1.2 mph - N/A   Clear
9:28 PM 51.8 °F 51.8 °F 100% 30.11 in 2.5 mi West 3.5 mph - N/A   Clear
9:33 PM 51.8 °F 51.8 °F 100% 30.11 in 4.0 mi WNW 2.3 mph - N/A   Clear
9:38 PM 51.8 °F 51.8 °F 100% 30.11 in 2.5 mi NNW 2.3 mph - N/A   Clear
9:48 PM 51.8 °F 51.8 °F 100% 30.11 in 3.0 mi NW 2.3 mph - N/A   Clear
9:58 PM 51.8 °F 51.8 °F 100% 30.12 in 4.0 mi NW 2.3 mph - N/A   Clear
10:33 PM 51.8 °F 51.8 °F 100% 30.11 in 2.5 mi Calm Calm - N/A   Clear
10:58 PM 51.8 °F 51.8 °F 100% 30.12 in 0.8 mi Calm Calm - N/A   Clear
10:59 PM 51.8 °F 51.8 °F 100% 30.11 in 0.5 mi Calm Calm - N/A Fog Fog
11:04 PM 50.0 °F 50.0 °F 100% 30.11 in 0.8 mi Calm Calm - N/A   Mist
11:09 PM 50.0 °F 50.0 °F 100% 30.11 in 1.2 mi Calm Calm - N/A   Mostly Cloudy
11:14 PM 50.0 °F 50.0 °F 100% 30.11 in 1.0 mi Calm Calm - N/A   Mist
11:19 PM 50.0 °F 50.0 °F 100% 30.11 in 0.5 mi Calm Calm - N/A Fog Fog
11:24 PM 50.0 °F 50.0 °F 100% 30.11 in 0.8 mi ENE 1.2 mph - N/A   Overcast
11:29 PM 50.0 °F 50.0 °F 100% 30.11 in 2.5 mi Calm Calm - N/A   Overcast
11:39 PM 50.0 °F 50.0 °F 100% 30.10 in 2.5 mi Calm Calm - N/A   Overcast
11:44 PM 50.0 °F 50.0 °F 100% 30.11 in 3.0 mi Calm Calm - N/A   Overcast
11:54 PM 50.0 °F 50.0 °F 100% 30.10 in 2.0 mi South 2.3 mph - N/A   Overcast
11:58 PM 50.0 °F 50.0 °F 100% 30.11 in 1.5 mi SSW 2.3 mph - N/A   Overcast